Lawrenceville, IL

8:48 PM CDT on March 29, 2017 (GMT -0500)
Lawrenceville-Vincennes International

Weather History for KLWV - March, 2013

Change the Weather History Date:

Sunday, March 24, 2013

  Actual Average Record
Temperature  
Mean Temperature 38 °F 48 °F  
Max Temperature 44 °F 59 °F 81 °F (2007)
Min Temperature 32 °F 37 °F 22 °F (2014)
Degree Days  
Heating Degree Days 27 17  
Month to date heating degree days 657 508  
Since 1 July heating degree days 4353 4183  
Cooling Degree Days 0 0  
Month to date cooling degree days 0 0  
Year to date cooling degree days 0 0  
Moisture  
Dew Point 33 °F    
Average Humidity 73    
Maximum Humidity 100    
Minimum Humidity 45    
Precipitation  
Precipitation 0.47 in 0.14 in 1.19 in (1969)
Month to date precipitation 3.08 2.40  
Year to date precipitation 11.64 6.79  
Sea Level Pressure  
Sea Level Pressure 29.59 in    
Wind  
Wind Speed 13 mph (NNE)    
Max Wind Speed 24 mph    
Max Gust Speed 30 mph    
Visibility 3 miles    
Events Fog , Rain , Snow    
T = Trace of Precipitation, MM = Missing Value Source: NWS Daily Summary

Daily Weather History Graph

Daily Weather History Graph

Search for Another Location

Airport or City:

Trip Planner

Search our weather history database for the weather conditions in past years. The results will help you decide how hot, cold, wet, or windy it might be!

Date:

Astronomy

Mar. 24, 2013 Rise Set
Actual Time 6:47 AM CDT 7:06 PM CDT
Civil Twilight 6:20 AM CDT 7:33 PM CDT
Nautical Twilight 5:49 AM CDT 8:04 PM CDT
Astronomical Twilight 5:17 AM CDT 8:36 PM CDT
Moon 4:35 PM CDT (3/24) 4:55 AM CDT (3/24)
Length of Visible Light 13h 12m
Length of Day
12h 19m
Waxing Gibbous, 92% of the Moon is Illuminated
Mar 24
Waxing Gibbous
Mar 27
Full
Apr 2
Last Quarter
Apr 10
New
Apr 18
First Quarter

Hourly Weather History & Observations

Time (CDT) Temp. Windchill Dew Point Humidity Pressure Visibility Wind Dir Wind Speed Gust Speed Precip Events Conditions
12:53 AM 44.1 °F 38.6 °F 25.0 °F 47% 29.83 in 9.0 mi NE 10.4 mph - N/A   Overcast
1:53 AM 43.0 °F 40.3 °F 26.1 °F 51% 29.86 in 9.0 mi NNE 4.6 mph - N/A   Overcast
2:53 AM 42.1 °F 36.1 °F 26.1 °F 53% 29.83 in 8.0 mi NE 10.4 mph - N/A   Overcast
3:09 AM 41.0 °F 34.7 °F 28.4 °F 61% 29.82 in 6.0 mi ENE 10.4 mph - 0.00 in Rain Light Rain
3:53 AM 37.9 °F 29.2 °F 32.0 °F 79% 29.81 in 4.0 mi NNE 15.0 mph - 0.01 in Rain Light Rain
4:23 AM 35.6 °F 25.9 °F 33.8 °F 93% 29.78 in 2.5 mi NNE 16.1 mph - 0.01 in Snow Light Snow
4:53 AM 34.0 °F 23.4 °F 33.1 °F 96% 29.77 in 1.8 mi NNE 17.3 mph - 0.03 in Snow Light Snow
5:07 AM 33.8 °F 23.5 °F 33.8 °F 100% 29.75 in 2.5 mi NE 16.1 mph - 0.01 in Rain Light Rain
5:18 AM 33.8 °F 23.2 °F 33.8 °F 100% 29.74 in 3.0 mi NE 17.3 mph 25.3 mph 0.02 in Rain Light Rain
5:53 AM 35.1 °F 25.5 °F 33.1 °F 92% 29.76 in 5.0 mi NE 15.0 mph - 0.02 in   Overcast
6:53 AM 35.1 °F 26.4 °F 33.1 °F 92% 29.70 in 5.0 mi NE 12.7 mph - 0.00 in Rain Light Rain
7:42 AM 37.4 °F 29.3 °F 33.8 °F 87% 29.72 in 4.0 mi NE 12.7 mph 20.7 mph 0.00 in   Overcast
7:53 AM 37.0 °F 27.4 °F 32.0 °F 82% 29.72 in 4.0 mi NE 17.3 mph 23.0 mph 0.00 in   Haze
8:05 AM 37.4 °F 26.9 °F 32.0 °F 81% 29.70 in 4.0 mi ENE 20.7 mph 25.3 mph N/A   Haze
8:53 AM 37.0 °F 28.1 °F 33.1 °F 86% 29.67 in 3.0 mi ENE 15.0 mph 26.5 mph N/A   Overcast
9:53 AM 37.0 °F 27.4 °F 32.0 °F 82% 29.65 in 3.0 mi ENE 17.3 mph 23.0 mph N/A   Haze
10:53 AM 37.9 °F 28.2 °F 33.1 °F 83% 29.57 in 4.0 mi ENE 18.4 mph - N/A   Haze
11:53 AM 39.9 °F 30.2 °F 34.0 °F 79% 29.51 in 5.0 mi ENE 20.7 mph 27.6 mph N/A   Haze
12:44 PM 41.0 °F 31.1 °F 33.8 °F 76% 29.46 in 5.0 mi East 23.0 mph 29.9 mph N/A   Haze
12:53 PM 41.0 °F 31.9 °F 35.1 °F 79% 29.45 in 6.0 mi East 19.6 mph - N/A   Haze
1:40 PM 39.2 °F 30.2 °F 35.6 °F 87% 29.54 in 2.5 mi South 17.3 mph 23.0 mph 0.02 in Rain Rain
1:50 PM 35.6 °F 29.9 °F 33.8 °F 93% 29.52 in 1.0 mi SSE 6.9 mph - 0.06 in Rain Heavy Rain
1:53 PM 36.0 °F 30.3 °F 34.0 °F 93% 29.52 in 1.0 mi SSE 6.9 mph - 0.07 in Rain Rain
2:36 PM 33.8 °F 27.0 °F 33.8 °F 100% 29.47 in 0.5 mi East 8.1 mph - 0.11 in Fog , Snow Snow
2:53 PM 33.1 °F 28.7 °F 32.0 °F 96% 29.47 in 0.2 mi East 4.6 mph - 0.11 in Fog , Snow Heavy Snow
3:43 PM 33.8 °F - 33.8 °F 100% 29.45 in 0.5 mi Calm Calm - 0.03 in Fog , Snow Light Snow
3:53 PM 33.1 °F - 33.1 °F 100% 29.46 in 0.5 mi Calm Calm - 0.03 in Fog , Snow Light Snow
4:02 PM 33.8 °F 30.8 °F 33.8 °F 100% 29.45 in 0.5 mi NNE 3.5 mph - 0.01 in Fog , Snow Light Snow
4:14 PM 33.8 °F 28.6 °F 33.8 °F 100% 29.45 in 0.5 mi North 5.8 mph - 0.02 in Fog , Snow Light Snow
4:53 PM 33.1 °F 28.7 °F 33.1 °F 100% 29.46 in 0.5 mi NNE 4.6 mph - 0.05 in Fog , Snow Light Snow
5:22 PM 33.8 °F 28.6 °F 33.8 °F 100% 29.44 in 0.5 mi North 5.8 mph - 0.02 in Fog , Snow Light Snow
5:42 PM 33.8 °F 28.6 °F 33.8 °F 100% 29.45 in 0.8 mi North 5.8 mph - 0.04 in Snow Light Snow
5:53 PM 33.1 °F 26.9 °F 33.1 °F 100% 29.46 in 0.5 mi North 6.9 mph - 0.04 in Fog , Snow Light Snow
6:04 PM 33.8 °F 27.7 °F 33.8 °F 100% 29.45 in 0.8 mi North 6.9 mph - 0.01 in Snow Light Snow
6:29 PM 33.8 °F 27.7 °F 33.8 °F 100% 29.47 in 1.2 mi North 6.9 mph - 0.02 in Snow Light Snow
6:53 PM 33.1 °F 25.5 °F 33.1 °F 100% 29.48 in 1.0 mi North 9.2 mph - 0.03 in Snow Light Snow
7:21 PM 33.8 °F 25.3 °F 33.8 °F 100% 29.48 in 2.0 mi North 11.5 mph - 0.02 in Snow Light Snow
7:53 PM 33.1 °F 23.9 °F 33.1 °F 100% 29.49 in 2.0 mi North 12.7 mph - 0.03 in Snow Light Snow
8:24 PM 33.8 °F 24.8 °F 32.0 °F 93% 29.50 in 3.0 mi North 12.7 mph - 0.02 in Snow Light Snow
8:53 PM 34.0 °F 24.6 °F 32.0 °F 92% 29.52 in 5.0 mi North 13.8 mph - 0.03 in Snow Light Snow
9:04 PM 33.8 °F 23.5 °F 32.0 °F 93% 29.51 in 3.0 mi North 16.1 mph - 0.00 in Snow Light Snow
9:49 PM 33.8 °F 23.5 °F 32.0 °F 93% 29.54 in 5.0 mi North 16.1 mph - 0.01 in Snow Light Snow
9:53 PM 33.1 °F 21.9 °F 32.0 °F 96% 29.55 in 4.0 mi North 18.4 mph - 0.01 in Snow Light Snow
10:53 PM 33.1 °F 21.9 °F 30.9 °F 92% 29.58 in 5.0 mi NNW 18.4 mph 25.3 mph 0.00 in Snow Light Snow
11:53 PM 32.0 °F 20.5 °F 30.0 °F 92% 29.61 in 8.0 mi NNW 18.4 mph 25.3 mph 0.00 in   Overcast